[[{"header":{"parameterUnit":"m.s-1","parameterCategory":1,"la1":30.2991,"la2":30.254,"lo1":-89.0895,"lo2":-89.0444,"dy":0.0017,"dx":0.0017,"nx":28,"ny":28,"refTime":"2025-04-22T09:00:00:Z","depth":0,"parameterNumber":2,"parameterNumberName":"U-component_of_WINDS"},"data":[0,0,0,0,0,0,0,0,0,0,0,0,0,0,0,0,0,0,0,0,0,0,0,0,0,0,0,0,0,0,0,0,0,0,0,0,0,0,0,0,0,0,0,0,0,0,0,0,0,0,0,0,0,0,0,0,0,0,-1.4072,-1.4072,0,-1.4068,-1.4068,-1.4068,-1.4033,-1.4032,-1.4031,-1.4031,-1.4027,-1.4027,-1.4028,0,0,0,0,0,0,0,0,0,0,0,0,0,-1.4052,-1.4052,-1.4072,-1.4072,-1.4072,-1.4068,-1.4068,-1.4068,-1.4033,-1.4032,-1.4031,-1.403,-1.4026,-1.4027,-1.4028,0,0,0,0,0,0,0,0,0,0,0,0,0,-1.4055,-1.4052,-1.4072,-1.4054,-1.4053,-1.4068,-1.4068,-1.4068,-1.4033,-1.4032,-1.4031,-1.403,-1.4026,-1.4027,-1.4028,-1.406,0,0,-1.4031,-1.4032,0,0,0,0,0,0,0,0,-1.4055,-1.4056,-1.4057,-1.4056,-1.4054,-1.405,-1.4059,-1.4065,-1.4034,-1.4041,-1.4031,-1.4029,-1.4035,-1.4035,-1.4037,-1.406,-1.4059,-1.4031,-1.4032,-1.4032,-1.4033,0,0,0,0,0,0,0,-1.4055,-1.4056,-1.407,-1.4057,-1.4055,-1.4047,-1.4046,-1.406,-1.4045,-1.404,-1.4038,-1.4037,-1.4034,-1.4037,-1.4037,-1.4059,-1.4031,-1.4032,-1.4033,-1.4033,-1.4108,-1.4109,0,0,0,0,0,0,-1.4057,-1.4056,-1.407,-1.407,-1.4051,-1.4048,-1.4047,-1.4052,-1.4045,-1.4043,-1.4039,-1.4036,-1.4035,-1.4036,-1.4037,-1.4074,-1.4032,-1.4033,-1.4034,-1.4106,-1.4108,-1.4109,0,0,0,0,0,0,-1.4057,-1.4059,-1.4071,-1.4062,-1.4063,-1.405,-1.4056,-1.4053,-1.4055,-1.4044,-1.4041,-1.4044,-1.4034,-1.4035,-1.4054,-1.4073,-1.4034,-1.4035,-1.4105,-1.4107,-1.4109,-1.4148,0,0,0,0,0,0,-1.4056,-1.4059,-1.4071,-1.4063,-1.4064,-1.4088,-1.4057,-1.4054,-1.4057,-1.4053,-1.4048,-1.4046,-1.4033,-1.4053,-1.4055,-1.4074,-1.4035,-1.4103,-1.4106,-1.4108,-1.4145,-1.4151,-1.4156,0,0,0,0,0,-1.4056,-1.4082,-1.4071,-1.4073,-1.4078,-1.4089,-1.409,-1.4075,-1.4059,-1.407,-1.4063,-1.4046,-1.4071,-1.4055,-1.4058,-1.4077,-1.4102,-1.4105,-1.4108,-1.4142,-1.415,-1.4156,0,0,0,0,0,0,-1.4092,-1.408,-1.4069,-1.4093,-1.4093,-1.4084,-1.4098,-1.4084,-1.4088,-1.4084,-1.4066,-1.4065,-1.4087,-1.4083,-1.4067,-1.4107,-1.4083,-1.4087,-1.4108,-1.4115,-1.4121,-1.4121,-1.4036,0,0,0,0,0,-1.4103,-1.4113,-1.4102,-1.4125,-1.4125,-1.4112,-1.4116,-1.4105,-1.4103,-1.4103,-1.4097,-1.4097,-1.4104,-1.411,-1.4116,-1.4144,-1.4142,-1.4158,-1.4164,-1.4169,-1.4172,-1.4187,-1.4194,-1.412,-1.4119,-1.4119,0,0,-1.4126,-1.412,-1.4128,-1.4132,-1.413,-1.4141,-1.4112,-1.4124,-1.4132,-1.4105,-1.4122,-1.4118,-1.4116,-1.414,-1.415,-1.4138,-1.4192,-1.4172,-1.4176,-1.4177,-1.4191,-1.4198,-1.4204,-1.4122,-1.4121,-1.4121,0,0,-1.4172,-1.4169,-1.4188,-1.4187,-1.4184,-1.4175,-1.418,-1.4173,-1.4169,-1.4186,-1.4166,-1.4175,-1.4189,-1.4188,-1.419,-1.4237,-1.4221,-1.4239,-1.4269,-1.4284,-1.4289,-1.4294,-1.4311,-1.4318,-1.4243,-1.4243,-1.4243,0,-1.4201,-1.4216,-1.4199,-1.4213,-1.4216,-1.4191,-1.421,-1.421,-1.421,-1.4212,-1.4198,-1.4215,-1.4212,-1.4235,-1.4247,-1.4249,-1.4253,-1.424,-1.429,-1.4295,-1.4299,-1.4315,-1.4322,-1.4245,-1.4245,-1.4244,-1.4244,0,-1.4251,-1.4262,-1.4277,-1.4278,-1.4282,-1.4298,-1.4284,-1.429,-1.4279,-1.4271,-1.4289,-1.4285,-1.429,-1.4295,-1.4284,-1.4317,-1.4309,-1.4293,-1.4269,-1.4309,-1.4324,-1.4329,-1.4248,-1.4247,-1.4247,-1.4246,0,0,-1.4321,-1.4312,-1.4317,-1.4317,-1.4313,-1.4321,-1.4336,-1.4341,-1.4347,-1.4348,-1.436,-1.4372,-1.4357,-1.4359,-1.4348,-1.436,-1.4398,-1.4342,-1.4342,-1.4353,-1.4434,-1.4447,-1.4454,-1.4387,-1.4388,-1.4389,-1.4435,0,-1.4366,-1.4391,-1.4377,-1.4404,-1.4414,-1.4391,-1.4404,-1.4403,-1.4397,-1.4404,-1.4397,-1.4406,-1.4385,-1.4386,-1.4398,-1.4391,-1.4414,-1.4387,-1.4399,-1.44,-1.44,-1.4462,-1.4475,-1.4518,-1.444,-1.4441,-1.4442,0,-1.4422,-1.4425,-1.4453,-1.4447,-1.445,-1.4463,-1.4466,-1.4473,-1.4472,-1.4466,-1.4468,-1.4454,-1.4468,-1.4444,-1.4464,-1.4447,-1.4451,-1.4448,-1.4449,-1.445,-1.4423,-1.4464,-1.4531,-1.4538,-1.4451,-1.445,-1.4449,0,-1.447,-1.4481,-1.45,-1.45,-1.4493,-1.4502,-1.45,-1.4497,-1.4501,-1.4504,-1.4506,-1.4511,-1.4514,-1.4518,-1.4505,-1.4488,-1.4527,-1.4502,-1.4523,-1.4523,-1.4532,-1.4532,-1.4601,-1.4534,-1.4534,-1.4534,-1.4534,0,-1.4522,-1.454,-1.4521,-1.4533,-1.4553,-1.4536,-1.4556,-1.4551,-1.4549,-1.4559,-1.4539,-1.4549,-1.4532,-1.454,-1.453,-1.4549,-1.455,-1.4546,-1.4543,-1.4548,-1.4548,-1.455,-1.4547,-1.4536,-1.4535,-1.4535,-1.4535,0,-1.4579,-1.4567,-1.4586,-1.4578,-1.4576,-1.4591,-1.4584,-1.4594,-1.4587,-1.46,-1.4602,-1.459,-1.4598,-1.4586,-1.4594,-1.4587,-1.4612,-1.4605,-1.4613,-1.4611,-1.4633,-1.4631,-1.4705,-1.4714,-1.4642,-1.4643,-1.4644,0,-1.4613,-1.4627,-1.462,-1.4625,-1.4624,-1.4633,-1.4637,-1.4621,-1.4626,-1.4625,-1.4635,-1.4642,-1.4647,-1.4662,-1.4654,-1.466,-1.4653,-1.4678,-1.4653,-1.4658,-1.4653,-1.4653,-1.4654,-1.4684,-1.4685,-1.4685,-1.4686,0,-1.4675,-1.4668,-1.4674,-1.4679,-1.4684,-1.4686,-1.4687,-1.4693,-1.4676,-1.4683,-1.4691,-1.4695,-1.4703,-1.471,-1.4714,-1.4711,-1.4696,-1.4694,-1.4699,-1.4704,-1.4708,-1.4706,-1.4627,-1.4692,-1.4691,-1.4691,-1.4691,-1.469,-1.4722,-1.4733,-1.473,-1.4737,-1.4737,-1.4738,-1.4747,-1.4741,-1.4747,-1.4752,-1.4742,-1.4754,-1.4752,-1.4755,-1.4754,-1.4763,-1.4752,-1.4759,-1.4761,-1.4763,-1.4767,-1.4707,-1.4763,-1.4763,-1.4763,-1.4763,-1.4763,0,-1.4783,-1.478,-1.4787,-1.4789,-1.4795,-1.478,-1.478,-1.4786,-1.4796,-1.4795,-1.4801,-1.4811,-1.4818,-1.481,-1.4816,-1.4824,-1.4817,-1.4826,-1.4826,-1.4826,-1.4776,-1.4771,-1.4832,-1.4832,-1.4832,-1.4832,-1.4832,-1.4832,-1.4815,-1.4833,-1.4826,-1.4844,-1.484,-1.4851,-1.4853,-1.4854,-1.4853,-1.4865,-1.4871,-1.4866,-1.4863,-1.4868,-1.4874,-1.4871,-1.4875,-1.4886,-1.4881,-1.4836,-1.4829,-1.4822,-1.4818,-1.4887,-1.4887,-1.493,-1.493,-1.493]},{"header":{"parameterUnit":"m.s-1","parameterCategory":1,"la1":30.2991,"la2":30.254,"lo1":-89.0895,"lo2":-89.0444,"dy":0.0017,"dx":0.0017,"nx":28,"ny":28,"refTime":"2025-04-22T09:00:00:Z","depth":0,"parameterNumber":3,"parameterNumberName":"V-component_of_WINDS"},"data":[0,0,0,0,0,0,0,0,0,0,0,0,0,0,0,0,0,0,0,0,0,0,0,0,0,0,0,0,0,0,0,0,0,0,0,0,0,0,0,0,0,0,0,0,0,0,0,0,0,0,0,0,0,0,0,0,0,0,0.793,0.7929,0,0.7881,0.788,0.788,0.7847,0.7847,0.7847,0.7847,0.7793,0.7792,0.7791,0,0,0,0,0,0,0,0,0,0,0,0,0,0.7992,0.7991,0.793,0.7929,0.7929,0.7881,0.788,0.788,0.7847,0.7847,0.7847,0.7847,0.7794,0.7792,0.7791,0,0,0,0,0,0,0,0,0,0,0,0,0,0.7957,0.7991,0.793,0.7907,0.7904,0.7881,0.788,0.788,0.7847,0.7847,0.7847,0.7846,0.7794,0.7792,0.7791,0.7786,0,0,0.7785,0.7784,0,0,0,0,0,0,0,0,0.7959,0.7954,0.7911,0.7908,0.7906,0.787,0.7883,0.7848,0.7847,0.7869,0.7847,0.7846,0.7819,0.7815,0.7806,0.7783,0.7781,0.7785,0.7784,0.7783,0.7782,0,0,0,0,0,0,0,0.7961,0.7956,0.791,0.791,0.7907,0.7898,0.7893,0.7876,0.7846,0.7867,0.7865,0.7859,0.7817,0.7808,0.7805,0.778,0.7785,0.7783,0.7782,0.7781,0.7751,0.7751,0,0,0,0,0,0,0.7968,0.7958,0.7912,0.7909,0.7932,0.7897,0.7891,0.7882,0.7846,0.7841,0.786,0.7858,0.7812,0.7807,0.7803,0.7795,0.7783,0.7781,0.778,0.775,0.7751,0.7751,0,0,0,0,0,0,0.7969,0.7964,0.7914,0.7933,0.7926,0.7896,0.7886,0.7881,0.7872,0.7841,0.7835,0.7856,0.7811,0.7805,0.779,0.7793,0.778,0.7779,0.775,0.775,0.7751,0.7779,0,0,0,0,0,0,0.7971,0.7965,0.7963,0.7933,0.7925,0.7903,0.7886,0.788,0.7869,0.7866,0.7836,0.783,0.781,0.7793,0.7789,0.779,0.7777,0.775,0.775,0.7751,0.7778,0.7781,0.7783,0,0,0,0,0,0.7973,0.7972,0.7963,0.7958,0.7923,0.7904,0.7899,0.7877,0.7869,0.7867,0.7847,0.7831,0.7793,0.7792,0.7787,0.7787,0.7749,0.775,0.7751,0.7777,0.778,0.7783,0,0,0,0,0,0,0.8002,0.7968,0.7957,0.7947,0.7928,0.7898,0.7895,0.7881,0.7863,0.7861,0.7833,0.7827,0.7815,0.7799,0.7799,0.7781,0.7769,0.7769,0.7791,0.7794,0.7797,0.78,0.7776,0,0,0,0,0,0.8007,0.7995,0.7966,0.7959,0.7951,0.7924,0.7915,0.79,0.7879,0.7871,0.785,0.783,0.7813,0.7803,0.7786,0.7776,0.7768,0.7773,0.7776,0.7778,0.7778,0.7772,0.7774,0.7753,0.7753,0.7753,0,0,0.8017,0.7997,0.7991,0.7964,0.7948,0.7936,0.7918,0.7905,0.7896,0.7869,0.7854,0.7838,0.7813,0.7801,0.7794,0.7788,0.7782,0.7779,0.7781,0.7779,0.7772,0.7774,0.7776,0.7753,0.7753,0.7753,0,0,0.8029,0.8013,0.8006,0.7991,0.7967,0.795,0.7948,0.792,0.7909,0.7894,0.7873,0.7861,0.7833,0.7817,0.7805,0.7812,0.7796,0.7807,0.7819,0.7814,0.7815,0.7817,0.7819,0.782,0.7807,0.7807,0.7807,0,0.8044,0.8026,0.8004,0.7993,0.7982,0.7958,0.795,0.7936,0.7908,0.79,0.7894,0.7859,0.784,0.7824,0.7826,0.7817,0.7814,0.781,0.7817,0.7818,0.7819,0.7821,0.7822,0.7808,0.7808,0.7808,0.7808,0,0.8046,0.8033,0.803,0.8005,0.7994,0.7984,0.796,0.7951,0.7937,0.792,0.7905,0.7882,0.7861,0.7855,0.7841,0.7837,0.7834,0.7823,0.781,0.7823,0.7824,0.7825,0.781,0.781,0.7809,0.7809,0,0,0.8074,0.8038,0.8037,0.8025,0.7998,0.7987,0.7977,0.7957,0.795,0.7931,0.7921,0.7899,0.7888,0.7875,0.7858,0.7853,0.786,0.7842,0.7841,0.7846,0.7855,0.7863,0.7865,0.785,0.785,0.785,0.7857,0,0.8082,0.8063,0.8043,0.8031,0.8019,0.7997,0.7988,0.797,0.7954,0.7941,0.7922,0.7907,0.7895,0.7886,0.788,0.7861,0.7862,0.786,0.784,0.784,0.7847,0.7865,0.7874,0.7882,0.7857,0.7857,0.7857,0,0.8089,0.8073,0.806,0.8035,0.8029,0.8021,0.8001,0.7989,0.7968,0.7957,0.7943,0.7925,0.7912,0.7902,0.7884,0.7883,0.7874,0.7863,0.7863,0.786,0.7849,0.7863,0.7883,0.7885,0.7858,0.7858,0.7858,0,0.8111,0.8086,0.8075,0.8066,0.8036,0.8031,0.8018,0.7997,0.7986,0.7969,0.7961,0.7942,0.7932,0.7917,0.7895,0.7889,0.7879,0.7866,0.7868,0.7869,0.7867,0.7867,0.7886,0.7861,0.7861,0.7861,0.7861,0,0.8122,0.8115,0.8085,0.8078,0.807,0.8046,0.8038,0.8023,0.8004,0.7994,0.7973,0.7963,0.7935,0.7921,0.7904,0.7891,0.7886,0.7876,0.7872,0.7878,0.788,0.7872,0.7871,0.7861,0.7861,0.7861,0.7861,0,0.8145,0.8125,0.8111,0.8084,0.8078,0.8072,0.8049,0.8041,0.8024,0.8011,0.8007,0.798,0.7964,0.794,0.7916,0.7904,0.7894,0.7887,0.7902,0.7899,0.7902,0.7902,0.7916,0.7917,0.7892,0.7892,0.7893,0,0.8154,0.8148,0.8121,0.8113,0.8101,0.8088,0.8078,0.8055,0.8045,0.8021,0.8016,0.7998,0.7982,0.7956,0.7934,0.7916,0.7908,0.7914,0.7905,0.7911,0.7908,0.7908,0.7908,0.7916,0.7916,0.7917,0.7917,0,0.8171,0.8161,0.8148,0.8131,0.8119,0.8104,0.8088,0.8083,0.8056,0.8046,0.8029,0.8017,0.7993,0.7975,0.7954,0.7939,0.7924,0.792,0.792,0.7926,0.7935,0.7931,0.7908,0.792,0.792,0.7919,0.7919,0.7919,0.8187,0.8181,0.8161,0.8147,0.8133,0.8119,0.811,0.8093,0.8079,0.8059,0.8046,0.803,0.8009,0.7979,0.7965,0.7952,0.7945,0.7944,0.7944,0.7944,0.7947,0.7938,0.7948,0.7947,0.7947,0.7947,0.7947,0,0.8203,0.819,0.8177,0.8156,0.8144,0.8132,0.8114,0.8105,0.8092,0.8074,0.8059,0.804,0.8023,0.8,0.7981,0.7975,0.7967,0.7971,0.7971,0.7968,0.7953,0.7956,0.7977,0.7977,0.7977,0.7977,0.7977,0.7977,0.821,0.82,0.8188,0.817,0.8156,0.8142,0.8132,0.8119,0.8105,0.8085,0.8071,0.8057,0.8037,0.8016,0.8,0.7994,0.7988,0.7993,0.7985,0.7972,0.7969,0.7966,0.7968,0.7992,0.7992,0.8,0.8,0.8]}]]